ZHONGXING-26

Last updated on Sun Apr 12 2026 00:02:56 GMT+0000 (Coordinated Universal Time)

1 55686U 23023A 26100.40464304 -.00000352 00000+0 00000+0 0 9993 2 55686 0.0646 63.1366 0004432 352.8451 53.4555 1.00271515 11555
UTC large
Height (km)
Speed (km/s)
/
Latitude / Longitude
Inclination (degrees)
Orbital Period (minutes)
Azimuth
Elevation
Range (km)
Doppler Factor

Next 0 passes for location: London (51.5072 / 0.1276)

Sorry there are no passes over London.
ZHONGXING-26